Weather History for Coatesville, PA

Change the Weather History Date:

Tuesday, January 22, 2013

  Actual Average (KLNS) Record (KLNS)
Temperature  
Mean Temperature 18 °F -  
Max Temperature 24 °F 36 °F 55 °F (1986)
Min Temperature 12 °F 18 °F -16 °F (1984)
Degree Days  
Heating Degree Days 47    
Moisture  
Dew Point -1 °F    
Average Humidity 44    
Maximum Humidity 86    
Minimum Humidity 33    
Precipitation  
Precipitation 0.34 in - - ()
Sea Level Pressure  
Sea Level Pressure 30.09 in    
Wind  
Wind Speed 18 mph (NW)    
Max Wind Speed 26 mph    
Max Gust Speed 33 mph    
Visibility 10 miles    
Events Snow    
Averages and records for this station are not official NWS values.
T = Trace of Precipitation, MM = Missing Value Source: NWS Daily Summary

Daily Weather History Graph

Daily Weather History Graph

Search for Another Location

Airport:

Trip Planner

Search our weather history database for the weather conditions in past years. The results will help you decide how hot, cold, wet, or windy it might be!

Date:

Astronomy

Jan. 22, 2013 Rise Set
Actual Time 7:19 AM EST 5:11 PM EST
Civil Twilight 6:50 AM EST 5:40 PM EST
Nautical Twilight 6:17 AM EST 6:13 PM EST
Astronomical Twilight 5:45 AM EST 6:45 PM EST
Moon 1:32 PM EST (1/22) 3:39 AM EST (1/22)
Length of Visible Light 10h 49m
Length of Day
9h 51m
Waxing Gibbous, 82% of the Moon is Illuminated
Jan 22
Waxing Gibbous
Jan 26
Full
Feb 3
Last Quarter
Feb 10
New
Feb 17
First Quarter

Hourly Weather History & Observations

Time (EST) Temp. Windchill Dew Point Humidity Pressure Visibility Wind Dir Wind Speed Gust Speed Precip Events Conditions
12:15 AM 24.8 °F 12.4 °F 14.0 °F 64% 29.89 in 10.0 mi NW 15.0 mph 23.0 mph N/A   Clear
12:35 AM 23.0 °F 9.2 °F 14.0 °F 68% 29.88 in 10.0 mi NW 17.3 mph 20.7 mph N/A   Clear
12:55 AM 23.0 °F 8.3 °F 17.6 °F 80% 29.89 in 8.0 mi NW 19.6 mph 24.2 mph N/A Snow Light Snow
1:15 AM 23.0 °F 7.2 °F 19.4 °F 86% 29.90 in 1.8 mi NW 23.0 mph 27.6 mph 0.19 in Snow Light Snow
1:35 AM 23.0 °F 8.0 °F 14.0 °F 68% 29.91 in 10.0 mi NW 20.7 mph 25.3 mph 0.34 in   Mostly Cloudy
1:55 AM 21.2 °F 6.4 °F 10.4 °F 63% 29.93 in 10.0 mi NW 18.4 mph 28.8 mph 0.34 in   Overcast
2:15 AM 21.2 °F 3.9 °F 6.8 °F 54% 29.93 in 10.0 mi NW 26.5 mph 33.4 mph N/A   Scattered Clouds
2:35 AM 19.4 °F 2.8 °F 3.2 °F 49% 29.94 in 10.0 mi WNW 21.9 mph 32.2 mph N/A   Clear
2:55 AM 19.4 °F 3.2 °F 1.4 °F 46% 29.96 in 10.0 mi NW 20.7 mph 31.1 mph N/A   Clear
3:15 AM 19.4 °F 5.0 °F 3.2 °F 49% 29.97 in 10.0 mi WNW 16.1 mph 21.9 mph N/A   Clear
3:35 AM 19.4 °F 3.6 °F 1.4 °F 46% 29.97 in 10.0 mi NW 19.6 mph - N/A   Clear
3:55 AM 19.4 °F 3.2 °F -0.4 °F 42% 29.98 in 10.0 mi NW 20.7 mph 26.5 mph N/A   Clear
4:15 AM 19.4 °F 4.1 °F -0.4 °F 42% 29.98 in 10.0 mi WNW 18.4 mph 25.3 mph N/A   Clear
4:35 AM 17.6 °F 0.5 °F -0.4 °F 45% 29.99 in 10.0 mi WNW 21.9 mph 25.3 mph N/A   Clear
4:55 AM 17.6 °F 1.3 °F -0.4 °F 45% 30.00 in 10.0 mi NW 19.6 mph 26.5 mph N/A   Clear
5:15 AM 17.6 °F 3.2 °F -0.4 °F 45% 30.01 in 10.0 mi NW 15.0 mph - N/A   Clear
5:35 AM 17.6 °F 1.3 °F -0.4 °F 45% 30.01 in 10.0 mi WNW 19.6 mph 24.2 mph N/A   Clear
5:55 AM 17.6 °F 2.7 °F -0.4 °F 45% 30.02 in 10.0 mi WNW 16.1 mph 26.5 mph N/A   Clear
6:15 AM 17.6 °F 1.7 °F -0.4 °F 45% 30.03 in 10.0 mi WNW 18.4 mph 25.3 mph N/A   Clear
6:55 AM 17.6 °F 3.7 °F -0.4 °F 45% 30.05 in 10.0 mi NW 13.8 mph 24.2 mph N/A   Clear
7:15 AM 15.8 °F 0.9 °F -0.4 °F 49% 30.06 in 10.0 mi NW 15.0 mph 19.6 mph N/A   Clear
7:35 AM 15.8 °F 3.4 °F 1.4 °F 53% 30.07 in 10.0 mi WNW 10.4 mph - N/A   Clear
7:55 AM 17.6 °F 3.2 °F 1.4 °F 49% 30.08 in 10.0 mi WNW 15.0 mph - N/A   Clear
8:15 AM 17.6 °F 3.2 °F -0.4 °F 45% 30.08 in 10.0 mi WNW 15.0 mph 18.4 mph N/A   Clear
8:35 AM 17.6 °F 0.9 °F -0.4 °F 45% 30.09 in 10.0 mi WNW 20.7 mph 25.3 mph N/A   Clear
8:55 AM 17.6 °F 2.7 °F -4.0 °F 38% 30.10 in 10.0 mi NW 16.1 mph 25.3 mph N/A   Clear
9:15 AM 19.4 °F 4.5 °F -2.2 °F 39% 30.11 in 10.0 mi WNW 17.3 mph 27.6 mph N/A   Clear
9:35 AM 19.4 °F 3.6 °F -2.2 °F 39% 30.11 in 10.0 mi NW 19.6 mph 29.9 mph N/A   Clear
9:55 AM 19.4 °F 4.1 °F -2.2 °F 39% 30.13 in 10.0 mi WNW 18.4 mph 26.5 mph N/A   Clear
10:15 AM 19.4 °F 3.2 °F -2.2 °F 39% 30.13 in 10.0 mi WNW 20.7 mph 28.8 mph N/A   Partly Cloudy
10:35 AM 19.4 °F 3.2 °F -4.0 °F 36% 30.13 in 10.0 mi WNW 20.7 mph 27.6 mph N/A   Clear
10:55 AM 19.4 °F 2.5 °F -4.0 °F 36% 30.13 in 10.0 mi NW 23.0 mph 29.9 mph N/A   Clear
11:15 AM 19.4 °F 4.5 °F -4.0 °F 36% 30.12 in 10.0 mi NW 17.3 mph 29.9 mph N/A   Partly Cloudy
11:35 AM 19.4 °F 5.5 °F -4.0 °F 36% 30.12 in 10.0 mi NW 15.0 mph 27.6 mph N/A   Partly Cloudy
11:55 AM 21.2 °F 5.6 °F -2.2 °F 36% 30.11 in 10.0 mi NW 20.7 mph 31.1 mph N/A   Clear
12:15 PM 21.2 °F 7.3 °F -2.2 °F 36% 30.10 in 10.0 mi WNW 16.1 mph 33.4 mph N/A   Clear
12:35 PM 21.2 °F 6.8 °F -4.0 °F 33% 30.10 in 10.0 mi West 17.3 mph 26.5 mph N/A   Clear
12:55 PM 19.4 °F 3.2 °F -5.8 °F 33% 30.09 in 10.0 mi NW 20.7 mph 29.9 mph N/A   Clear
1:15 PM 21.2 °F 6.0 °F -4.0 °F 33% 30.09 in 10.0 mi NW 19.6 mph 28.8 mph N/A   Clear
1:35 PM 19.4 °F 3.2 °F -4.0 °F 36% 30.09 in 10.0 mi NW 20.7 mph 26.5 mph N/A   Clear
1:55 PM 19.4 °F 5.0 °F -4.0 °F 36% 30.09 in 10.0 mi WNW 16.1 mph 26.5 mph N/A   Clear
2:15 PM 21.2 °F 8.3 °F -2.2 °F 36% 30.09 in 10.0 mi WNW 13.8 mph 27.6 mph N/A   Clear
2:35 PM 19.4 °F 5.0 °F -4.0 °F 36% 30.09 in 10.0 mi NW 16.1 mph 25.3 mph N/A   Clear
2:55 PM 19.4 °F 4.5 °F -0.4 °F 42% 30.10 in 10.0 mi WNW 17.3 mph 23.0 mph N/A   Clear
3:15 PM 21.2 °F 5.2 °F -4.0 °F 33% 30.11 in 10.0 mi WNW 21.9 mph 26.5 mph N/A   Clear
3:35 PM 19.4 °F 4.5 °F -2.2 °F 39% 30.11 in 10.0 mi WNW 17.3 mph 25.3 mph N/A   Clear
3:55 PM 19.4 °F 3.2 °F -4.0 °F 36% 30.12 in 10.0 mi WNW 20.7 mph 28.8 mph N/A   Clear
4:15 PM 19.4 °F 4.5 °F -4.0 °F 36% 30.13 in 10.0 mi NW 17.3 mph 24.2 mph N/A   Clear
4:35 PM 19.4 °F 3.2 °F -4.0 °F 36% 30.13 in 10.0 mi WNW 20.7 mph 26.5 mph N/A   Clear
4:55 PM 17.6 °F 2.7 °F -2.2 °F 42% 30.13 in 10.0 mi NW 16.1 mph 20.7 mph N/A   Partly Cloudy
5:15 PM 17.6 °F 3.2 °F -2.2 °F 42% 30.15 in 10.0 mi NW 15.0 mph - N/A   Clear
5:35 PM 17.6 °F 3.2 °F -4.0 °F 38% 30.16 in 10.0 mi NW 15.0 mph 23.0 mph N/A   Clear
5:55 PM 17.6 °F 1.7 °F -4.0 °F 38% 30.16 in 10.0 mi NW 18.4 mph 25.3 mph N/A   Clear
6:15 PM 17.6 °F 2.2 °F -5.8 °F 35% 30.17 in 10.0 mi NW 17.3 mph - N/A   Clear
6:35 PM 17.6 °F 2.7 °F -4.0 °F 38% 30.18 in 10.0 mi WNW 16.1 mph 20.7 mph N/A   Clear
6:55 PM 15.8 °F 1.4 °F -5.8 °F 38% 30.20 in 10.0 mi NW 13.8 mph - N/A   Clear
7:15 PM 15.8 °F 2.1 °F -4.0 °F 41% 30.20 in 10.0 mi NW 12.7 mph 18.4 mph N/A   Clear
7:35 PM 15.8 °F 2.1 °F -4.0 °F 41% 30.20 in 10.0 mi NW 12.7 mph 19.6 mph N/A   Clear
7:55 PM 14.0 °F 1.2 °F -4.0 °F 45% 30.21 in 10.0 mi WNW 10.4 mph 18.4 mph N/A   Clear
8:15 PM 14.0 °F -0.8 °F -4.0 °F 45% 30.21 in 10.0 mi NW 13.8 mph - N/A   Clear
8:35 PM 14.0 °F 0.5 °F -4.0 °F 45% 30.21 in 10.0 mi NW 11.5 mph - N/A   Clear
8:55 PM 14.0 °F -0.2 °F -4.0 °F 45% 30.22 in 10.0 mi NW 12.7 mph 18.4 mph N/A   Clear
9:15 PM 14.0 °F -0.8 °F -5.8 °F 41% 30.22 in 10.0 mi NW 13.8 mph 21.9 mph N/A   Clear
9:35 PM 14.0 °F -0.2 °F -4.0 °F 45% 30.24 in 10.0 mi NW 12.7 mph 20.7 mph N/A   Clear
9:55 PM 14.0 °F -3.0 °F -4.0 °F 45% 30.24 in 10.0 mi NW 18.4 mph 23.0 mph N/A   Clear
10:15 PM 14.0 °F -0.2 °F -4.0 °F 45% 30.25 in 10.0 mi NW 12.7 mph 20.7 mph N/A   Clear
10:35 PM 14.0 °F -0.8 °F -4.0 °F 45% 30.25 in 10.0 mi NW 13.8 mph 20.7 mph N/A   Clear
10:55 PM 14.0 °F -0.2 °F -4.0 °F 45% 30.24 in 10.0 mi WNW 12.7 mph 20.7 mph N/A   Clear
11:15 PM 12.2 °F -1.0 °F -4.0 °F 48% 30.24 in 10.0 mi NW 10.4 mph - N/A   Clear
11:55 PM 12.2 °F -1.0 °F -4.0 °F 48% 30.24 in 10.0 mi WNW 10.4 mph - N/A   Clear